Home   Weather   Sanikiluaq   Past weeks

Flag for Canada Past Weather in Sanikiluaq, Nunavut, Canada — Yesterday and Last 2 Weeks

Now
45 °F

Clear.


Feels Like: 38 °F
Forecast: 44 / 49 °F
Wind: 15 mph from Southeast

Location: Kuujjuarapik

Current Time: Sep 28, 2016 at 1:23:49 AM

Latest Report: Sep 28, 2016 at 1:00 AM


Visibility: 9 mi

Pressure: 30.12 "Hg

Humidity: 61%

Dew Point: 32 °F

Location of SanikiluaqLocation

Past Weather in Sanikiluaq — Graph

°F

Sanikiluaq Temperature Yesterday

Maximum temperature yesterday: 61 °F (at 2:00 PM)
Minimum temperature yesterday: 43 °F (at 4:00 AM)
Average temperature yesterday: 51 °F

High & Low Weather Summary for the Past Weeks

 TemperatureHumidityPressure
High64 °F (Sep 18, 3:00 PM)100% (Sep 14, 12:53 AM)30.29 "Hg (Sep 14, 12:53 AM)
Low32 °F (Sep 17, 6:00 AM)39% (Sep 27, 3:00 PM)29.36 "Hg (Sep 20, 11:00 AM)
Average46 °F80%29.93 "Hg
* Reported Sep 13 12:00 AM — Sep 28 12:00 AM, Sanikiluaq, Weather by CustomWeather, © 2016

Note: Actual official high and low records may vary slightly from our data, if they occured in-between our weather recording intervals... More about our weather records

Advertising

Sanikiluaq Weather History for the Previous 24 Hours

Scroll right to see more
 ConditionsComfort  
Time TempWeatherWind HumidityBarometerVisibility
12:00 AM
Wed, Sep 28
45 °FClear.10 mph61%30.11 "Hg9 mi
11:00 PM
Tue, Sep 27
45 °FClear.13 mph66%30.09 "Hg9 mi
10:00 PM46 °FClear.13 mph62%30.08 "Hg9 mi
9:00 PM48 °FClear.8 mph62%30.07 "Hg9 mi
8:00 PM52 °FClear.9 mph58%30.04 "Hg9 mi
7:00 PM55 °FClear.6 mph51%30.01 "Hg9 mi
6:00 PM59 °FSunny.14 mph45%29.97 "Hg9 mi
5:00 PM61 °FSunny.9 mph42%29.96 "Hg9 mi
4:00 PM61 °FSunny.14 mph42%29.93 "Hg9 mi
3:00 PM61 °FSunny.13 mph39%29.92 "Hg9 mi
2:00 PM61 °FSunny.16 mph42%29.90 "Hg9 mi
1:00 PM59 °FSunny.14 mph45%29.90 "Hg9 mi
12:00 PM57 °FSunny.15 mph51%29.90 "Hg9 mi
11:00 AM55 °FSunny.9 mph55%29.89 "Hg9 mi
10:00 AM52 °FSunny.13 mph62%29.89 "Hg9 mi
9:00 AM48 °FSunny.10 mph66%29.88 "Hg9 mi
8:00 AM43 °FSunny.10 mph81%29.87 "Hg9 mi
7:00 AM43 °FClear.7 mph81%29.84 "Hg9 mi
6:00 AM43 °FClear.12 mph76%29.82 "Hg9 mi
5:00 AM43 °FClear.12 mph81%29.81 "Hg9 mi
4:00 AM43 °FClear.13 mph81%29.80 "Hg9 mi
3:00 AM45 °FClear.14 mph76%29.80 "Hg9 mi
2:00 AM46 °FClear.14 mph71%29.79 "Hg9 mi
1:00 AM46 °FClear.12 mph71%29.79 "Hg9 mi
Weather by CustomWeather, © 2016

See weather overviewHow to use our weather pages